When you browse on this site, cookies collect data to enhance your experience and personalize the content and advertising you see.
Visit our Privacy Policy to learn more. By continuing to use the site, you agree to this use of cookies and data.
  • In Germany
  • List of Countries
  • For 7 days
  • Water Temperature
  • Satellite Maps
  • Weather Map
  • Weather Widgets
  • user-avatar
    Login

    Hourly Weather Oble

    Today, 23 July, Tuesday

    Time Temperature Precipitation Wind Pressure Humidity
    00:00 +16°C° 0 mm 1 mps 755 mmHg 79%
    01:00 +15°C° 0 mm 1 mps 755 mmHg 79%
    02:00 +15°C° 0 mm 1 mps 755 mmHg 79%
    03:00 +15°C° 0 mm 1 mps 755 mmHg 78%
    04:00 +15°C° 0 mm 1 mps 755 mmHg 77%
    05:00 +16°C° 0 mm 1 mps 755 mmHg 74%
    06:00 +17°C° 0 mm 2 mps 755 mmHg 71%
    07:00 +18°C° 0 mm 2 mps 755 mmHg 68%
    08:00 +18°C° 0 mm 2 mps 755 mmHg 70%
    09:00 +18°C° 0 mm 3 mps 755 mmHg 71%
    10:00 +18°C° 0 mm 3 mps 755 mmHg 73%
    11:00 +19°C° 0 mm 3 mps 755 mmHg 70%
    12:00 +20°C° 0 mm 4 mps 754 mmHg 68%
    13:00 +20°C° 0 mm 4 mps 754 mmHg 66%
    14:00 +21°C° 0 mm 4 mps 754 mmHg 66%
    15:00 +21°C° 0 mm 4 mps 754 mmHg 66%
    16:00 +21°C° 0 mm 4 mps 754 mmHg 66%
    17:00 +20°C° 0 mm 3 mps 754 mmHg 71%
    18:00 +19°C° 0 mm 3 mps 754 mmHg 76%
    19:00 +19°C° 0 mm 2 mps 753 mmHg 81%
    20:00 +18°C° 0 mm 2 mps 754 mmHg 85%
    21:00 +17°C° 0 mm 2 mps 754 mmHg 89%
    22:00 +16°C° 0 mm 2 mps 754 mmHg 93%
    23:00 +15°C° 0 mm 2 mps 754 mmHg 94%

    Tomorrow, 24 July, Wednesday

    Time Temperature Precipitation Wind Pressure Humidity
    00:00 +15°C° 0 mm 1 mps 754 mmHg 94%
    01:00 +15°C° 0 mm 1 mps 754 mmHg 94%
    02:00 +14°C° 0 mm 1 mps 754 mmHg 94%
    03:00 +14°C° 0 mm 1 mps 754 mmHg 95%
    04:00 +14°C° 0 mm 1 mps 754 mmHg 95%
    05:00 +16°C° 0 mm 1 mps 754 mmHg 89%
    06:00 +18°C° 0 mm 1 mps 754 mmHg 84%
    07:00 +20°C° 0 mm 1 mps 754 mmHg 78%
    08:00 +21°C° 0 mm 1 mps 754 mmHg 72%
    09:00 +21°C° 0 mm 2 mps 754 mmHg 66%
    10:00 +24°C° 0 mm 2 mps 754 mmHg 61%
    11:00 +25°C° 0 mm 2 mps 754 mmHg 58%
    12:00 +25°C° 0 mm 2 mps 754 mmHg 55%
    13:00 +26°C° 0 mm 2 mps 754 mmHg 52%
    14:00 +26°C° 0 mm 2 mps 754 mmHg 51%
    15:00 +26°C° 0 mm 2 mps 754 mmHg 50%
    16:00 +27°C° 0 mm 3 mps 754 mmHg 49%
    17:00 +25°C° 0 mm 2 mps 753 mmHg 56%
    18:00 +24°C° 0 mm 2 mps 753 mmHg 62%
    19:00 +23°C° 0 mm 1 mps 753 mmHg 68%
    20:00 +21°C° 0 mm 1 mps 754 mmHg 74%
    21:00 +20°C° 0 mm 1 mps 754 mmHg 80%
    22:00 +19°C° 0 mm 1 mps 754 mmHg 85%
    23:00 +19°C° 0 mm 1 mps 754 mmHg 87%

    Day after tomorrow, 25 July, Thursday

    Time Temperature Precipitation Wind Pressure Humidity
    00:00 +18°C° 0 mm 1 mps 754 mmHg 89%
    01:00 +18°C° 0 mm 1 mps 754 mmHg 91%
    02:00 +18°C° 0 mm 1 mps 755 mmHg 92%
    03:00 +16°C° 0 mm 1 mps 755 mmHg 93%
    04:00 +16°C° 0 mm 1 mps 755 mmHg 93%
    05:00 +19°C° 0 mm 1 mps 755 mmHg 87%
    06:00 +20°C° 0 mm 1 mps 755 mmHg 81%
    07:00 +22°C° 0 mm 1 mps 755 mmHg 76%
    08:00 +23°C° 0 mm 1 mps 755 mmHg 69%
    09:00 +25°C° 0 mm 2 mps 755 mmHg 63%
    10:00 +26°C° 0 mm 2 mps 755 mmHg 57%
    11:00 +27°C° 0 mm 2 mps 754 mmHg 54%
    12:00 +27°C° 0 mm 3 mps 754 mmHg 50%
    13:00 +28°C° 0 mm 3 mps 754 mmHg 47%
    14:00 +28°C° 0 mm 3 mps 753 mmHg 46%
    15:00 +28°C° 0 mm 3 mps 753 mmHg 46%
    16:00 +28°C° 0 mm 3 mps 753 mmHg 46%
    17:00 +26°C° 0 mm 3 mps 753 mmHg 55%
    18:00 +24°C° 0 mm 3 mps 753 mmHg 64%
    19:00 +22°C° 0 mm 3 mps 752 mmHg 73%
    20:00 +20°C° 0 mm 3 mps 753 mmHg 76%
    21:00 +19°C° 0 mm 3 mps 753 mmHg 78%
    22:00 +18°C° 0 mm 3 mps 753 mmHg 81%
    23:00 +17°C° 0 mm 3 mps 753 mmHg 85%

    26 July, Friday

    Time Temperature Precipitation Wind Pressure Humidity
    00:00 +16°C° 0 mm 3 mps 752 mmHg 89%
    01:00 +15°C° 0 mm 2 mps 752 mmHg 93%
    02:00 +15°C° 0 mm 2 mps 752 mmHg 94%
    03:00 +15°C° 0 mm 2 mps 752 mmHg 95%
    04:00 +15°C° 0 mm 2 mps 752 mmHg 96%
    05:00 +16°C° 0 mm 3 mps 752 mmHg 90%
    06:00 +18°C° 0 mm 3 mps 752 mmHg 84%
    07:00 +19°C° 0 mm 3 mps 752 mmHg 79%
    08:00 +21°C° 0 mm 4 mps 752 mmHg 72%
    09:00 +22°C° 0 mm 4 mps 752 mmHg 65%
    10:00 +25°C° 0 mm 4 mps 752 mmHg 59%
    11:00 +25°C° 0.1 mm 4 mps 752 mmHg 58%
    12:00 +26°C° 0.1 mm 4 mps 751 mmHg 57%
    13:00 +26°C° 0.1 mm 5 mps 751 mmHg 57%
    14:00 +26°C° 0.3 mm 5 mps 751 mmHg 60%
    15:00 +25°C° 0.3 mm 5 mps 751 mmHg 63%
    16:00 +25°C° 0.3 mm 5 mps 751 mmHg 66%
    17:00 +23°C° 0.1 mm 4 mps 751 mmHg 72%
    18:00 +22°C° 0.1 mm 4 mps 751 mmHg 77%
    19:00 +21°C° 0.1 mm 3 mps 751 mmHg 83%
    20:00 +20°C° 0 mm 3 mps 751 mmHg 85%
    21:00 +20°C° 0 mm 3 mps 751 mmHg 86%
    22:00 +19°C° 0 mm 3 mps 751 mmHg 88%
    23:00 +18°C° 0.1 mm 3 mps 751 mmHg 91%

    27 July, Saturday

    Time Temperature Precipitation Wind Pressure Humidity
    00:00 +18°C° 0.1 mm 3 mps 751 mmHg 93%
    01:00 +17°C° 0.1 mm 3 mps 750 mmHg 96%
    02:00 +17°C° 0 mm 3 mps 750 mmHg 96%
    03:00 +16°C° 0 mm 3 mps 750 mmHg 97%
    04:00 +16°C° 0 mm 3 mps 750 mmHg 97%
    05:00 +17°C° 0 mm 3 mps 750 mmHg 93%
    06:00 +18°C° 0 mm 4 mps 750 mmHg 90%
    07:00 +20°C° 0 mm 4 mps 751 mmHg 86%
    08:00 +21°C° 0 mm 4 mps 751 mmHg 78%
    09:00 +23°C° 0 mm 5 mps 751 mmHg 71%
    10:00 +25°C° 0 mm 5 mps 751 mmHg 64%
    11:00 +26°C° 0.2 mm 5 mps 751 mmHg 61%
    12:00 +27°C° 0.2 mm 6 mps 750 mmHg 59%
    13:00 +27°C° 0.2 mm 6 mps 750 mmHg 56%
    14:00 +27°C° 0.3 mm 6 mps 750 mmHg 57%
    15:00 +27°C° 0.3 mm 6 mps 750 mmHg 57%
    16:00 +27°C° 0.3 mm 6 mps 750 mmHg 58%
    17:00 +26°C° 0 mm 5 mps 750 mmHg 64%
    18:00 +23°C° 0 mm 4 mps 750 mmHg 70%
    19:00 +22°C° 0 mm 3 mps 750 mmHg 75%
    20:00 +21°C° 0 mm 3 mps 750 mmHg 81%
    21:00 +20°C° 0 mm 3 mps 750 mmHg 86%
    22:00 +19°C° 0 mm 3 mps 750 mmHg 92%
    23:00 +19°C° 0 mm 3 mps 750 mmHg 92%

    28 July, Sunday

    Time Temperature Precipitation Wind Pressure Humidity
    00:00 +19°C° 0 mm 3 mps 750 mmHg 92%
    01:00 +19°C° 0 mm 3 mps 750 mmHg 92%
    02:00 +19°C° 0 mm 3 mps 750 mmHg 93%
    03:00 +18°C° 0 mm 3 mps 750 mmHg 94%
    04:00 +18°C° 0 mm 3 mps 750 mmHg 94%
    05:00 +19°C° 0 mm 4 mps 750 mmHg 90%
    06:00 +21°C° 0 mm 4 mps 750 mmHg 85%
    07:00 +22°C° 0 mm 4 mps 750 mmHg 81%
    08:00 +23°C° 0.3 mm 5 mps 750 mmHg 75%
    09:00 +26°C° 0.3 mm 5 mps 750 mmHg 70%
    10:00 +27°C° 0.3 mm 6 mps 750 mmHg 64%
    11:00 +28°C° 0.8 mm 6 mps 749 mmHg 63%
    12:00 +28°C° 0.8 mm 6 mps 749 mmHg 62%
    13:00 +28°C° 0.8 mm 6 mps 749 mmHg 61%
    14:00 +28°C° 0.5 mm 5 mps 748 mmHg 60%
    15:00 +28°C° 0.5 mm 5 mps 748 mmHg 60%
    16:00 +28°C° 0.5 mm 4 mps 748 mmHg 60%
    17:00 +27°C° 0.3 mm 4 mps 748 mmHg 67%
    18:00 +26°C° 0.3 mm 4 mps 748 mmHg 73%
    19:00 +24°C° 0.3 mm 3 mps 748 mmHg 79%
    20:00 +24°C° 0.1 mm 3 mps 748 mmHg 82%
    21:00 +22°C° 0.1 mm 3 mps 748 mmHg 85%
    22:00 +21°C° 0.1 mm 3 mps 748 mmHg 88%
    23:00 +20°C° 0.1 mm 3 mps 748 mmHg 90%
    Show more